Jackpot

Texas Poker Multi Jackpot System

Kini Telah hadir Jackpot SUPER ROYAL FLUSH

Kini Telah hadir Jackpot 2000 (khusus table VIP keatas).

Ikutilah global jackpot yang tersedia di system kami, dengan system jackpot terbaru dan pertama di indonesia, anda dapat membeli jackpot dengan harga 100 rupiah saja dan menangkan hadiahnya hingga puluhan juta rupiah.

Jackpot bukanlah suatu keharusan untuk dibeli, namun kami memberikan suatu fitur tambahan untuk member tercinta dari www.kaskuspoker.com.

Terdapat tiga pilihan harga jackpot yang bisa anda beli yaitu :100,500,1000 dan 2000(khusus table VIP Keatas) rupiah.

Hadiah dari Multi jackpot system www.kaskuspoker.com

  1. full house x 10 harga jackpot yang anda beli.
      (contoh:anda membeli 1000 maka:1000 X10 = 10.000)
  2. four of kind x 250 harga jackpot yang anda beli
      (contoh:anda membeli 1000 maka:1000 X250 = 250.000)
  3. Straight flush x 1200
      (contoh:anda membeli 1000 maka:1000 X1200 = 1.200.000)
  4. Royal flush x 10000 harga jackpot yang anda beli
      (contoh:anda membeli 1000 maka:1000 X10000 = 10.000.000)
  5. SUPER ROYAL FLUSH x 30000 harga jackpot yang anda beli
      (contoh:anda membeli 1000 maka:1000 X30000 = 30.000.000)

Kondisi kartu

  1. full house adalah kondisi kartu dimana kartu anda dan kartu tengah dengan total 7 kartu bisa mendapatkan nilai 5 kartu dengan kombinasi 1 tris(three of kind) dan 1 pair, contoh 3 kartu 10 dan 2 kartu 5
  2. Four of kind adalah kondisi kartu dimana kartu anda dan kartu tengah dengan total 7 kartu bisa mendapatkan nilai 5 kartu dengan kombinasi 4 kartu yang sama jumlah dan 1 kartu apapun juga contoh anda mendapatkan 4 buah kartu angka 3 dan 1 kartu apapun.
  3. Staright flush adalah kondisi kartu dimana kartu anda dan kartu tengah dengan total 7 kartu bisa mendapatkan nilai 5 kartu dengan kombinasi seri / staright dengan kembang yang sama contoh : urutan kartu dari angka 5, 6, 7, 8 , 9 10 dengan kembang yg sama misalnya as hati
  4. Royal flush adalah kondisi kartu dimana kartu anda dan kartu tengah dengan total 7 kartu bisa mendapatkan nilai 5 kartu dengan kombinasi seri / staright dengan kembang yang sama tetapi kartu tersebut haruslah dimulai dari 10. contoh 10, Queen, Jack, King dan aces dengan kembang yang sama
  5. Super Royal flush adalah kondisi kartu dimana Kedua kartu anda digabung dengan 3 kartu pertama meja haruslah royal flush. contoh kartu anda 10,Queen kembang sama dan 3 kartu pertama meja adalah Jack, King dan aces dengan kembang yang sama

Demikian adalah penjelasan dari Multi Jackpot www.kaskuspoker.com terima kasih dan selamat bermain salam hoki dari kami

Texas Poker Jackpot Winner

TOP SUPER ROYAL FLUSH
No.TanggalNamaPriceWin
125/03 03:19LP663HAOJUSuper Royal flush15,000,000
225/03 02:35EPZUKGE89ISuper Royal flush30,000,000
325/03 02:01ALESANDRA2Super Royal flush3,000,000
424/03 17:42Y4VOG6YD1SSuper Royal flush30,000,000
524/03 12:17J3P3234Super Royal flush15,000,000
TOP ROYAL FLUSH
No.TanggalNamaPriceWin
125/03 04:49B6170TVURoyal flush1,000,000
225/03 04:42HERL1NNRoyal flush10,000,000
325/03 04:38BASONG30Royal flush10,000,000
425/03 04:36FRDYUDIRoyal flush10,000,000
525/03 04:34JILANNRoyal flush1,000,000
TOP STRAIGHT FLUSH
No.TanggalNamaPriceWin
125/03 04:50D2CA87DDStraight Flush600,000
225/03 04:49KUMAYANG99Straight Flush600,000
325/03 04:48KUCLUKZStraight Flush120,000
425/03 04:33IJAHSEXY99Straight Flush1,200,000
525/03 04:29C3BD40C8Straight Flush120,000
LATEST JACKPOT
No.TanggalNamaPriceWin
125/03 04:51SIR4MFour Of A Kind250,000
225/03 04:51AZIB16Full House1,000
325/03 04:51SUNYAH88Full House1,000
425/03 04:51LAP0R1Full House20,000
525/03 04:51MS22Full House1,000
625/03 04:51IMAN0890Full House5,000
725/03 04:51ZXCVBNM88Full House1,000
825/03 04:51GAMRUDFull House1,000
925/03 04:51KOSSE88Full House1,000
1025/03 04:51KASIABOSSFull House1,000
1125/03 04:51IWANFFull House5,000
1225/03 04:51THV7RN0Z23Full House1,000
1325/03 04:51LEMBOK1234Full House1,000
1425/03 04:51FEBRYAFull House20,000
1525/03 04:51IZ573668Full House10,000
1625/03 04:51JENJORDIFull House5,000
1725/03 04:51KINGQQPRO1Full House1,000
1825/03 04:51POINT13Full House10,000
1925/03 04:51TEACHER_Full House1,000
2025/03 04:50D46B32CAFull House5,000
2125/03 04:50RIWANSYAHFull House1,000
2225/03 04:50QORUN75Full House1,000
2325/03 04:50KALUH33Full House1,000
2425/03 04:50EKAAAAAMFull House5,000
2525/03 04:50BLAO21Full House20,000
2625/03 04:50SOVIUTAMIFull House20,000
2725/03 04:50NAFKAH12Full House1,000
2825/03 04:50OTONK15Four Of A Kind250,000
2925/03 04:50MRDPYDFull House1,000
3025/03 04:50JAROTHEROFull House10,000
3125/03 04:50INDRO82Full House1,000
3225/03 04:50COST85Full House5,000
3325/03 04:50PAYAH889Four Of A Kind25,000
3425/03 04:50KAZIB09Full House5,000
3525/03 04:50RAHEL888Full House10,000
3625/03 04:50BOPAK513Full House1,000
3725/03 04:50P0ETRIEFull House5,000
3825/03 04:50TEMPORATFour Of A Kind125,000
3925/03 04:50BULIK789Four Of A Kind125,000
4025/03 04:50DEVI52Four Of A Kind25,000
4125/03 04:50SE74T11Four Of A Kind125,000
4225/03 04:50BRAYY88899Full House5,000
4325/03 04:50GURU10Full House5,000
4425/03 04:50KAGEYAMA13Full House20,000
4525/03 04:50UP1N12Full House1,000
4625/03 04:50GET777Full House5,000
4725/03 04:50JEBREEEDDDFull House1,000
4825/03 04:50GDFJ7YM5FJFour Of A Kind25,000
4925/03 04:50BAPOY77Four Of A Kind25,000
5025/03 04:50C4TFull House1,000

Domino Multi Jackpot System

Ikutilah global jackpot yang tersedia di system kami, dengan system jackpot terbaru dan pertama di indonesia, anda dapat membeli jackpot dengan harga 100 rupiah saja dan menangkan hadiahnya hingga puluhan juta rupiah.

Jackpot bukanlah suatu keharusan untuk dibeli, namun kami memberikan suatu fitur tambahan untuk member tercinta dari www.kaskuspoker.com.

Terdapat tiga pilihan harga jackpot yang bisa anda beli yaitu :100,500 dan 1000 rupiah.

Hadiah dari Multi jackpot system www.kaskuspoker.com

  1. Murni Kecil x 50 harga jackpot yang anda beli.
      (contoh:anda membeli 1000 maka:1000 X 50 = 50.000)
  2. Murni Besar x 50 harga jackpot yang anda beli
      (contoh:anda membeli 1000 maka:1000 X 50 = 50.000)
  3. BALAK x 100 harga jackpot yang anda beli
      (contoh:anda membeli 1000 maka:1000 X 100 = 100.000)
  4. ENAM DEWA x 6666 harga jackpot yang anda beli
      (contoh:anda membeli 1000 maka:1000 X 6666 = 6.666.000)

Demikian adalah penjelasan dari Multi Jackpot www.kaskuspoker.com terima kasih dan selamat bermain salam hoki dari kami

Domino Jackpot Winner

TOP ENAM DEWA
No.TanggalNamaPriceWin
125/03 01:43CHIKAL46murni enam6,666,000
225/03 00:57SMALINGmurni enam666,600
325/03 00:46DJMAOKKKmurni enam666,600
424/03 23:19I5Y8AENV8Hmurni enam6,666,000
524/03 22:54MAHK0T4murni enam6,666,000
TOP BALAK
No.TanggalNamaPriceWin
125/03 04:50MUDALLLbalak50,000
225/03 04:43IT0balak100,000
325/03 04:43AGUS9194balak100,000
425/03 04:34ARY78balak100,000
525/03 04:31P4M4N1H21balak100,000
LATEST JACKPOT
No.TanggalNamaPriceWin
125/03 04:50OMENSANG21murni besar25,000
225/03 04:50MUDALLLbalak50,000
325/03 04:49JYANGLEEmurni besar50,000
425/03 04:49KW17murni kecil5,000
525/03 04:49F2WA7YXOQ4murni kecil5,000
625/03 04:49TANJIUL76murni kecil25,000
725/03 04:48AMDEK13murni kecil25,000
825/03 04:45UMIX39murni besar5,000
925/03 04:45SUMEK11murni kecil5,000
1025/03 04:44POKERBOELmurni besar25,000
1125/03 04:43IT0balak100,000
1225/03 04:43SANGADImurni kecil5,000
1325/03 04:43AGUS9194balak100,000
1425/03 04:42KOMUNIS12murni kecil5,000
1525/03 04:42E37CF17Amurni besar5,000
1625/03 04:41LAPAK275murni kecil25,000
1725/03 04:40ANDITA501murni kecil5,000
1825/03 04:39RATH2murni besar50,000
1925/03 04:39HEINS82murni besar25,000
2025/03 04:38AMIRNURDmurni kecil25,000
2125/03 04:38T0P4N07murni besar50,000
2225/03 04:38PINTARA01murni kecil50,000
2325/03 04:36SANGADImurni kecil5,000
2425/03 04:36FAJARFJRmurni besar50,000
2525/03 04:35UCHE57murni kecil50,000
2625/03 04:35D4DE22EFmurni besar50,000
2725/03 04:34ARY78balak100,000
2825/03 04:34ZLIMVILmurni besar50,000
2925/03 04:32PAKPAHAN99murni kecil25,000
3025/03 04:31GARON909murni besar25,000
3125/03 04:31NASEUD0C2Qmurni kecil25,000
3225/03 04:31B00XXEPmurni kecil5,000
3325/03 04:31P4M4N1H21balak100,000
3425/03 04:30GARON909murni besar5,000
3525/03 04:29TNOCEBOLbalak100,000
3625/03 04:29JACKB00Tmurni kecil50,000
3725/03 04:29GEMPITA93murni kecil50,000
3825/03 04:27DDN66murni besar25,000
3925/03 04:27BUFON6666murni kecil25,000
4025/03 04:27D4DE22EFmurni besar50,000
4125/03 04:26JYANGLEEbalak100,000
4225/03 04:26HINABANARmurni besar25,000
4325/03 04:25GAMBLER58murni kecil50,000
4425/03 04:25HINABANARbalak50,000
4525/03 04:24LORONG9murni besar25,000
4625/03 04:24CUY009murni besar5,000
4725/03 04:24WULANRFSmurni kecil5,000
4825/03 04:24KRIBO887murni besar50,000
4925/03 04:22PAKPAHAN99murni besar25,000
5025/03 04:22NAONWLAH02murni kecil50,000

Ceme Multi Jackpot System

Jackpot dilihat dari gabungan kartu pemain dengan kartu bandar. Bandar harus membeli jackpot sebanyak jumlah player yang sedang duduk. Sebagai contoh bila terdapat 3 pemain duduk bermain, dan bandar memutuskan untuk membeli jackpot Rp 1.000, maka pada periode tersebut bandar akan membeli jackpot sebanyak 3xRp1.000 = Rp3.000.

Jackpot bukanlah suatu keharusan untuk dibeli, namun kami memberikan suatu fitur tambahan untuk member tercinta dari www.kaskuspoker.com.

Terdapat tiga pilihan harga jackpot yang bisa anda beli yaitu :100,500 dan 1000 rupiah.

Hadiah dari Multi jackpot system www.kaskuspoker.com

  1. Murni Kecil x 50 harga jackpot yang anda beli.
      (contoh:anda membeli 1000 maka:1000 X 50 = 50.000)
  2. Murni Besar x 50 harga jackpot yang anda beli
      (contoh:anda membeli 1000 maka:1000 X 50 = 50.000)
  3. BALAK x 200 harga jackpot yang anda beli
      (contoh:anda membeli 1000 maka:1000 X 200 = 200.000)
  4. ENAM DEWA x 6666 harga jackpot yang anda beli
      (contoh:anda membeli 1000 maka:1000 X 6666 = 6.666.000)

Demikian adalah penjelasan dari Multi Jackpot www.kaskuspoker.com terima kasih dan selamat bermain salam hoki dari kami

Ceme Jackpot Winner

TOP ENAM DEWA
No.TanggalNamaPriceWin
125/03 04:29EW7KCPJUT1murni enam666,600
225/03 04:29M4RCOPOLO6murni enam666,600
325/03 04:00HELMINORmurni enam3,333,000
425/03 04:00PIKANTROmurni enam6,666,000
525/03 03:03M3MBL3murni enam6,666,000
TOP BALAK
No.TanggalNamaPriceWin
125/03 04:51MATAHARI91balak200,000
225/03 04:51LYNNSYNNbalak200,000
325/03 04:49Z4LIK4balak20,000
425/03 04:49KABALbalak200,000
525/03 04:48KAESCEbalak200,000
LATEST JACKPOT
No.TanggalNamaPriceWin
125/03 04:51ZIGGY801murni kecil50,000
225/03 04:51DN4DALAM4ZZZmurni kecil25,000
325/03 04:51GILANX88murni kecil50,000
425/03 04:51T4DBOGEK90murni kecil50,000
525/03 04:51ADEN1791murni kecil50,000
625/03 04:51RETKK3murni kecil5,000
725/03 04:51R353murni kecil5,000
825/03 04:51PUPUPU93murni kecil5,000
925/03 04:51MATAHARI91balak200,000
1025/03 04:51LYNNSYNNbalak200,000
1125/03 04:50E251C59Bmurni besar50,000
1225/03 04:50T90JAYAmurni kecil25,000
1325/03 04:50D412W1N55murni kecil50,000
1425/03 04:50DUITRPmurni kecil5,000
1525/03 04:50GANJAR888murni kecil25,000
1625/03 04:50DONITEAmurni kecil50,000
1725/03 04:49BRODIN9murni kecil25,000
1825/03 04:49Z4LIK4balak20,000
1925/03 04:49MIE_TIAWmurni kecil5,000
2025/03 04:49GAJEB03Hmurni kecil50,000
2125/03 04:49KABALbalak200,000
2225/03 04:49SENA2003murni besar50,000
2325/03 04:49ELMARSHIDmurni besar25,000
2425/03 04:48KAESCEbalak200,000
2525/03 04:48ICAN1234murni kecil50,000
2625/03 04:48KABALmurni kecil50,000
2725/03 04:48WAKCAN007murni kecil50,000
2825/03 04:48KABALmurni kecil50,000
2925/03 04:48MATBELTOK1murni besar5,000
3025/03 04:47IK4BOIQATVbalak20,000
3125/03 04:47KUNKUN55balak200,000
3225/03 04:47XXPUTRIXXmurni besar50,000
3325/03 04:47KABALmurni kecil50,000
3425/03 04:47MOR456murni besar50,000
3525/03 04:47DWBTARIE49balak200,000
3625/03 04:47POODEPIbalak20,000
3725/03 04:47EEV77RNCMImurni besar25,000
3825/03 04:47NU2LCGXFIFmurni besar5,000
3925/03 04:46SUYONO98murni besar5,000
4025/03 04:46WULAN7781murni besar5,000
4125/03 04:46DWBTARIE49murni besar25,000
4225/03 04:46AJI4545murni kecil25,000
4325/03 04:46GHOTWOmurni kecil50,000
4425/03 04:46WEULINGmurni kecil50,000
4525/03 04:45AMIIIIN3Xmurni kecil50,000
4625/03 04:45UNANA48murni kecil50,000
4725/03 04:45ICAN1234murni kecil50,000
4825/03 04:45DAVINA220murni kecil50,000
4925/03 04:45DWBTARIE49balak100,000
5025/03 04:45ASINPEDEZmurni besar50,000